www.pogodaiklimat.ru

Погода и климат >> Архив погоды >> Австралия >> Новый Южный Уэльс >> Хей


ПОГОДА в Хее

  • Прогноз погоды в Хее
  • Монитор погоды в Хее

АРХИВ ПОГОДЫ в Хее

Время (UTC), дата Ветер
(напр.,м/с)
 
Видим.   Явления Облачность Т
(С)
Тd
(С)
f
(%)
Тe
(С)
Тes
(С)
Комфортность P
(гПа)
Po
(гПа)
Тmin
(С)
Tmax
(С)
R
(мм)
R24
(мм)
S
(см)
04 15.09 С 7 н/о н/о +26.8 -0.3 17 +25 +25 комфорт 1018.2 1007.1
05 15.09 С 8 н/о н/о +28.6 -0.5 15 +26 +26 жарко 1017.7 1006.6
07 15.09 СЗ 7 н/о н/о +26.9 -0.2 17 +25 +25 комфорт 1017.3 1006.2
08 15.09 С 5 н/о н/о +25.7 -0.4 18 +24 +24 комфорт 1017.4 1006.3
10 15.09 С 6 н/о н/о +23.6 -0.6 20 +22 +22 комфорт 1017.3 1006.2
11 15.09 С 6 н/о н/о +22.9 -1.2 20 +22 +22 комфорт 1017.3 1006.2
13 15.09 СЗ 2 н/о н/о +19.8 -0.2 26 +21 +21 комфорт 1016.4 1005.3
14 15.09 С 3 н/о н/о +18.4 +0.1 29 +19 +19 1015.8 1004.7 +29.3
16 15.09 С 6 н/о н/о +18.6 -2.3 24 +18 +18 1014.1 1003.1
17 15.09 С 6 н/о н/о +19.5 -1.6 24 +19 +19 1013.4 1002.4
19 15.09 ЮЗ 5 н/о н/о +17.0 +2.6 38 +16 +16 1015.1 1004.0
20 15.09 Ю 2 н/о н/о +15.8 +6.5 54 +16 +16 1015.4 1004.3
22 15.09 ЮЗ 6 н/о н/о +17.5 +9.9 61 +17 +17 1017.7 1006.6
23 15.09 Ю 8 н/о н/о +17.3 +9.0 58 +16 +16 1018.3 1007.2
01 16.09 Ю 6 н/о н/о +18.2 +9.3 56 +18 +18 1018.4 1007.3
02 16.09 Ю 6 н/о н/о +17.1 +7.2 52 +16 +16 1018.6 1007.5 +15.6
04 16.09 Ю 7 н/о н/о +16.2 +5.2 48 +15 +15 1019.0 1007.9
05 16.09 Ю 10 н/о н/о +12.3 +5.9 65 +9 +9 1019.7 1008.6
07 16.09 Ю 4 н/о н/о +8.6 +8.0 96 +6 +6 1020.9 1009.8
08 16.09 Ю 3 н/о в посл. час дождь {туман} н/о +8.8 +8.5 98 +6 +6 1021.6 1010.5
10 16.09 ЮЗ 4 н/о н/о +9.3 +9.2 99 +6 +6 1022.3 1011.2
11 16.09 Ю 5 н/о {туман} н/о +9.1 +7.5 90 +6 +6 1022.6 1011.5
13 16.09 Ю 6 н/о н/о +6.4 +3.4 81 +2 +2 1022.7 1011.6
14 16.09 Ю 6 н/о н/о +5.4 +2.4 81 +1 +1 1022.6 1011.5 +21.2
16 16.09 ЮЗ 7 н/о н/о +4.6 +2.0 83 -1 -1 1022.8 1011.7
17 16.09 Ю 7 н/о {туман} н/о +4.1 +1.6 84 -2 -2 1022.3 1011.2
19 16.09 ЮЗ 6 н/о н/о +3.0 +1.4 89 -3 -3 1022.2 1011.1
20 16.09 Ю 6 н/о н/о +3.2 +1.6 89 -3 -3 1022.8 1011.7
22 16.09 Ю 8 н/о н/о +6.0 +1.3 72 +1 +1 1024.3 1013.1
23 16.09 Ю 7 н/о н/о +8.3 +1.7 63 +4 +4 1025.0 1013.8
01 17.09 ЮВ 6 н/о н/о +13.0 +2.8 50 +11 +11 1025.2 1014.0
02 17.09 Ю 5 н/о н/о +14.2 +3.1 47 +13 +13 1024.9 1013.7 +3.0
04 17.09 ЮВ 5 н/о н/о +16.0 +3.1 42 +15 +15 1023.8 1012.7
05 17.09 Ю 6 н/о н/о +16.3 +2.3 39 +15 +15 1023.6 1012.5
07 17.09 Ю 4 н/о н/о +16.6 +1.9 37 +16 +16 1024.4 1013.2
08 17.09 ЮВ 4 н/о н/о +14.8 +1.7 41 +14 +14 1024.7 1013.5
10 17.09 Ю 4 н/о н/о +11.6 +3.9 59 +10 +10 1026.2 1015.0
11 17.09 Ю 3 н/о н/о +12.4 +3.1 53 +11 +11 1027.0 1015.8
13 17.09 Ю 4 н/о н/о +11.3 +2.3 54 +10 +10 1027.4 1016.2
14 17.09 ЮВ 3 н/о н/о +10.4 +2.7 59 +9 +9 1027.3 1016.1 +17.7
16 17.09 ЮВ 3 н/о н/о +7.7 +3.2 73 +5 +5 1027.1 1015.9
17 17.09 ЮВ 3 н/о н/о +6.5 +2.8 77 +4 +4 1027.1 1015.9
19 17.09 В 3 н/о н/о +4.8 +1.3 78 +2 +2 1027.1 1015.9
20 17.09 В 3 н/о н/о +4.6 +1.3 79 +1 +1 1027.3 1016.1
22 17.09 В 4 н/о н/о +10.1 +3.6 64 +8 +8 1028.1 1016.9
23 17.09 В 5 н/о н/о +14.5 +3.6 48 +13 +13 1028.2 1017.0
01 18.09 В 5 н/о н/о +18.0 +3.9 39 +18 +18 1027.2 1016.0
02 18.09 В 5 н/о н/о +18.7 +2.9 35 +19 +19 1026.3 1015.1 +3.8
04 18.09 СВ 6 н/о н/о +20.8 +2.1 29 +21 +21 комфорт 1024.9 1013.7
05 18.09 В 3 н/о н/о +21.5 +2.7 29 +21 +21 комфорт 1024.3 1013.1
07 18.09 В 4 н/о н/о +20.8 +2.1 29 +21 +21 комфорт 1024.0 1012.8
08 18.09 В 4 н/о н/о +19.3 +2.2 32 +20 +20 1024.1 1012.9
10 18.09 В 3 н/о н/о +13.3 +2.2 47 +13 +13 1024.5 1013.3
11 18.09 В 2 н/о н/о +11.2 +2.5 55 +10 +10 1024.5 1013.3
13 18.09 ЮВ 3 н/о н/о +9.6 +3.1 64 +8 +8 1024.3 1013.1
14 18.09 В 3 н/о н/о +9.3 +3.5 67 +7 +7 1024.1 1012.9 +22.2
16 18.09 В 3 н/о н/о +8.1 +3.6 73 +6 +6 1022.9 1011.8
17 18.09 В 3 н/о н/о +7.3 +3.9 79 +4 +4 1022.6 1011.5
19 18.09 В 4 н/о н/о +8.3 +5.9 85 +5 +5 1022.3 1011.2
20 18.09 В 3 н/о н/о +8.3 +6.4 88 +6 +6 1022.7 1011.6
22 18.09 СВ 6 н/о н/о +14.8 +8.7 67 +13 +13 1023.5 1012.4
23 18.09 СВ 7 н/о н/о +17.6 +9.5 59 +17 +17 1023.4 1012.3
01 19.09 С 7 н/о н/о +22.5 +10.0 45 +24 +24 комфорт 1021.7 1010.6
02 19.09 СВ 6 н/о н/о +24.5 +8.9 37 +25 +25 комфорт 1021.0 1009.9 +7.2
04 19.09 С 5 н/о н/о +25.9 +7.5 31 +26 +26 жарко 1019.2 1008.1
05 19.09 СВ 5 н/о н/о +26.0 +7.6 31 +26 +26 жарко 1018.5 1007.4
07 19.09 СВ 7 н/о н/о +26.0 +7.1 30 +26 +26 жарко 1018.0 1006.9
08 19.09 СВ 5 н/о н/о +24.1 +6.8 33 +24 +24 комфорт 1018.1 1007.0
10 19.09 СВ 5 н/о н/о +21.7 +8.2 42 +23 +23 комфорт 1018.0 1006.9
11 19.09 СВ 6 н/о н/о +21.8 +8.0 41 +23 +23 комфорт 1018.4 1007.3
13 19.09 СВ 7 н/о н/о +20.4 +7.7 44 +21 +21 комфорт 1018.0 1006.9
14 19.09 СВ 7 н/о н/о +19.4 +7.5 46 +20 +20 1018.1 1007.0 +26.9
16 19.09 СВ 7 н/о н/о +17.9 +7.6 51 +17 +17 1017.7 1006.6
17 19.09 СВ 7 н/о н/о +17.3 +7.6 53 +16 +16 1017.6 1006.5
19 19.09 СВ 8 н/о н/о +16.6 +7.8 56 +15 +15 1017.9 1006.8
20 19.09 СВ 7 н/о н/о +15.8 +7.8 59 +14 +14 1018.3 1007.2
22 19.09 СВ 8 н/о н/о +18.6 +9.1 54 +18 +18 1018.8 1007.7
23 19.09 СВ 9 н/о н/о +21.3 +9.2 46 +23 +23 комфорт 1018.5 1007.4
01 20.09 СВ 10 н/о н/о +26.0 +8.0 32 +26 +26 жарко 1017.3 1006.2
02 20.09 СВ 10 н/о н/о +27.3 +6.7 27 +27 +27 жарко 1016.2 1005.1 +15.4
04 20.09 СВ 10 н/о н/о +28.7 +3.5 20 +27 +27 жарко 1013.8 1002.8
05 20.09 СВ 9 н/о н/о +28.7 +4.2 21 +27 +27 жарко 1012.6 1001.6
07 20.09 СВ 8 н/о н/о +28.3 +2.5 19 +26 +26 жарко 1011.5 1000.5
08 20.09 СВ 5 н/о н/о +26.6 +3.2 22 +25 +25 комфорт 1011.9 1000.9
10 20.09 СВ 4 н/о н/о +22.3 +3.4 29 +22 +22 комфорт 1011.9 1000.9
11 20.09 СВ 5 н/о н/о +22.5 +4.1 30 +23 +23 комфорт 1011.5 1000.5
13 20.09 СВ 8 н/о н/о +22.3 +5.7 34 +23 +23 комфорт 1009.9 998.9
14 20.09 СВ 9 н/о н/о +21.6 +7.1 39 +22 +22 комфорт 1009.0 998.0 +30.5
16 20.09 СВ 9 н/о н/о +21.9 +8.4 42 +23 +23 комфорт 1007.4 996.4
17 20.09 СВ 8 н/о н/о +22.4 +7.0 37 +23 +23 комфорт 1006.7 995.7
19 20.09 С 8 н/о н/о +22.4 +4.5 31 +23 +23 комфорт 1008.1 997.1
20 20.09 З 7 н/о н/о +13.8 +8.6 71 +11 +11 1010.2 999.2
22 20.09 З 5 н/о н/о +14.2 +9.6 74 +13 +13 1011.8 1000.8
23 20.09 СЗ 6 н/о н/о +15.3 +9.7 69 +14 +14 1013.4 1002.4
01 21.09 СЗ 10 н/о н/о +17.8 +8.9 56 +17 +17 1015.1 1004.0
02 21.09 З 8 н/о н/о +18.2 +9.0 55 +17 +17 1015.3 1004.2 +13.5
04 21.09 СЗ 10 н/о н/о +18.6 +6.8 46 +18 +18 1015.4 1004.3
05 21.09 З 9 н/о н/о +19.7 +3.0 33 +19 +19 1015.7 1004.6
07 21.09 З 7 н/о н/о +19.1 +1.6 31 +19 +19 1016.7 1005.6
08 21.09 З 7 н/о н/о +17.6 +1.2 33 +17 +17 1017.6 1006.5
10 21.09 З 3 н/о н/о +12.9 +1.3 45 +12 +12 1019.6 1008.5
11 21.09 З 3 н/о н/о +12.9 +1.3 45 +12 +12 1019.8 1008.7
13 21.09 ЮЗ 4 н/о н/о +11.3 +4.7 64 +9 +9 1021.1 1010.0
14 21.09 ЮЗ 4 н/о н/о +10.5 +4.9 68 +8 +8 1021.3 1010.2 +23.2
16 21.09 З 2 н/о н/о +7.3 +4.1 80 +5 +5 1021.7 1010.6
17 21.09 З 3 н/о н/о +6.8 +4.1 83 +4 +4 1022.1 1011.0
19 21.09 СЗ 2 н/о н/о +3.7 +1.9 88 +1 +1 1023.4 1012.3
20 21.09 штиль 0 н/о н/о +4.5 +3.5 93 +3 +3 1024.3 1013.1
22 21.09 З 3 н/о н/о +9.7 +5.7 76 +7 +7 1025.4 1014.2
23 21.09 ЮЗ 3 н/о н/о +12.5 +5.0 60 +11 +11 1025.7 1014.5
01 22.09 З 3 н/о н/о +15.5 +0.9 37 +15 +15 1025.3 1014.1
02 22.09 З 6 н/о н/о +16.5 +0.2 33 +16 +16 1025.2 1014.0 +3.6

 

Местоположение метеостанции Хей (Новый Южный Уэльс, Австралия): широта -34.53 долгота 144.83 высота над уровнем моря 92 м.

В архиве по умолчанию представлена погода в Хее за последнюю неделю. Архивные данные за месяц целиком и за предыдущие месяцы, начиная с января 2011 года, Вы можете получить, выбрав интересующий диапазон дат из раскрывающегося списка и нажав кнопку "Ввод!".


*Определитесь, кто Вы:
робот инопланетянин человек

Внимание! Время в таблицах - всемирное. Для получения местного времени необходимо прибавить поправку, которая равна 10 ч.

Смотрите также архив погоды в соседних городах и на ближайших метеорологических станциях:

Погода в Дениликине (Новый Южный Уэльс, Австралия) (116 км)
Погода в Гриффите (Новый Южный Уэльс, Австралия) (118 км)
Погода в Янко (Новый Южный Уэльс, Австралия) (147 км)
Погода в Суон-Хилле (Виктория, Австралия) (152 км)
Погода в Наррандере (Новый Южный Уэльс, Австралия) (156 км)
Погода в Айванхо (Новый Южный Уэльс, Австралия) (189 км)
Погода в Ярравонге (Виктория, Австралия) (198 км)
Погода в Кайабраме (Виктория, Австралия) (201 км)
Погода в Татуре (Виктория, Австралия) (215 км)
Погода в Шеппартоне (Виктория, Австралия) (218 км)

Пояснения к столбцам:

Ветер - указаны скорость ветра в м/с - средняя за 10 мин, порывы в срок и между сроками (в фигурных скобках) и направление, откуда дует ветер: С - северный, СВ - северо-восточный, В - восточный, ЮВ - юго-восточный, Ю - южный, ЮЗ - юго-западный, З - западный, СЗ - северо-западный.
Видимость - горизонтальная дальность видимости в метрах или километрах. При видимости от 1 до 10 км при отсутствии осадков обычно наблюдается дымка, при ухудшении видимости до 1 км и менее - туман. В сухую погоду видимость может ухудшаться дымом, пылью или мглою.
Явления - указаны атмосферные явления, наблюдавшиеся в срок или в последний час перед сроком; фигурными скобками обозначены явления, наблюдавшиеся между сроками (за 1-3 часа до срока); квадратными скобками обозначены град или гололедные отложения с указанием их диаметра в мм.
Облачность - указаны через наклонную черту общая и нижняя облачность в баллах и высота нижней границы облаков в метрах; квадратными скобками обозначены формы облаков: Ci - перистые, Cs - перисто-слоистые, Cc - перисто-кучевые, Ac - высококучевые, As - высокослоистые, Sc - слоисто-кучевые, Ns - слоисто-дождевые, Cu - кучевые, Cb - кучево-дождевые. Подробнее классификацию облаков см. в Атласе облаков (PDF).
T - Температура воздуха - температура, измеренная на высоте 2 м над землей.
Td - Температура точки росы - температура, при понижении до которой содержащийся в воздухе водяной пар достигнет насыщения.
f - Относительная влажность воздуха - влажноcть воздуха, измеренная на высоте 2 м над землей.
Te - Эффективная температура - температура, которую ощущает одетый по сезону человек в тени. Характеристика душности погоды. При расчете учитывается влияние влажности воздуха и скорости ветра на теплоощущения человека.
Tes - Эффективная температура на солнце - температура, которую ощущает человек, с поправкой на солнечный нагрев. Характеристика знойности погоды. Зависит от высоты солнца над горизонтом, облачности и скорости ветра. Ночью, в пасмурную погоду, а также при ветре 12 м/с и более поправка равна нулю.
P - Атмосферное давление - приведенное к уровню моря атмосферное давление.
Po - Атмосферное давление - измеренное на уровне метеостанции атмосферное давление.
Tmin - Минимальная температура - минимум температуры воздуха на высоте 2 м над землей.
Tmax - Максимальная температура - максимум температуры воздуха на высоте 2 м над землей.
R - Количество осадков - Количество выпавших осадков за период времени, мм. При наведении курсора мыши на число - период времени, за который выпало указанное количество осадков.
R24 - Количество осадков - Количество выпавших осадков за 24 часа, мм.
S - Снежный покров - Высота снежного покрова, см. При наведении курсора мыши на число - состояние снежного покрова и степень покрытия местности в баллах.